Location: Newark
(51.8900°N, 2.0780°W)
Time: 12:47:44
(UTC+00:00)

Envisat - Pass Details

Date: 29 November 2019
Orbit: 764 x 766 km, 98.1° (Epoch: 13 December)

Event Time Altitude Azimuth Distance (km) Brightness Sun altitude
Rises 06:25:48 0° 20° (NNE) 3,245 6.3 -12.4°
Reaches altitude 10° 06:28:17 10° 28° (NNE) 2,314 5.6 -12.0°
Maximum altitude 06:33:01 37° 96° (E) 1,174 4.7 -11.3°
Drops below altitude 10° 06:37:42 10° 164° (SSE) 2,297 6.0 -10.6°
Sets 06:40:09 0° 172° (S) 3,219 6.7 -10.3°
